• Em Portugal
  • Lista de países
  • Para 7 dias
  • Temperatura da água
  • Mapas de satélite
  • Mapa do tempo
  • Widgets de tempo
  • user-avatar
    Iniciar Sessão

    Previsão horária em Abrantes

    Hoje, 24 Maio, Quarta-feira

    Tempo Temperatura Precipitação Vento Pressão Humidade
    00:00 +21°C° 0 mm 2 m/s 753 mmHg 51%
    01:00 +21°C° 0 mm 2 m/s 752 mmHg 52%
    02:00 +20°C° 0 mm 3 m/s 752 mmHg 53%
    03:00 +20°C° 0 mm 3 m/s 753 mmHg 56%
    04:00 +20°C° 0 mm 3 m/s 753 mmHg 60%
    05:00 +20°C° 0 mm 3 m/s 753 mmHg 63%
    06:00 +22°C° 0 mm 3 m/s 753 mmHg 57%
    07:00 +25°C° 0 mm 4 m/s 753 mmHg 52%
    08:00 +27°C° 0 mm 4 m/s 754 mmHg 47%
    09:00 +29°C° 0 mm 4 m/s 753 mmHg 42%
    10:00 +32°C° 0 mm 4 m/s 753 mmHg 37%
    11:00 +34°C° 0 mm 4 m/s 753 mmHg 32%
    12:00 +35°C° 0 mm 3 m/s 753 mmHg 31%
    13:00 +36°C° 0 mm 3 m/s 753 mmHg 29%
    14:00 +36°C° 0 mm 2 m/s 752 mmHg 28%
    15:00 +35°C° 0,1 mm 3 m/s 752 mmHg 33%
    16:00 +34°C° 0,1 mm 3 m/s 752 mmHg 37%
    17:00 +31°C° 0,1 mm 3 m/s 752 mmHg 42%
    18:00 +29°C° 0 mm 3 m/s 752 mmHg 49%
    19:00 +26°C° 0 mm 3 m/s 752 mmHg 56%
    20:00 +22°C° 0 mm 3 m/s 753 mmHg 63%
    21:00 +21°C° 0,1 mm 3 m/s 753 mmHg 67%
    22:00 +21°C° 0,1 mm 2 m/s 752 mmHg 71%
    23:00 +20°C° 0,1 mm 2 m/s 752 mmHg 75%

    Amanhã, 25 Maio, Quinta-feira

    Tempo Temperatura Precipitação Vento Pressão Humidade
    00:00 +19°C° 0,1 mm 2 m/s 752 mmHg 75%
    01:00 +19°C° 0,1 mm 2 m/s 752 mmHg 75%
    02:00 +20°C° 0,1 mm 1 m/s 752 mmHg 75%
    03:00 +20°C° 0 mm 1 m/s 752 mmHg 76%
    04:00 +20°C° 0 mm 1 m/s 752 mmHg 77%
    05:00 +20°C° 0 mm 1 m/s 752 mmHg 78%
    06:00 +22°C° 0,2 mm 1 m/s 752 mmHg 71%
    07:00 +24°C° 0,2 mm 1 m/s 752 mmHg 63%
    08:00 +26°C° 0,2 mm 1 m/s 753 mmHg 56%
    09:00 +28°C° 0,1 mm 2 m/s 753 mmHg 52%
    10:00 +29°C° 0,1 mm 2 m/s 753 mmHg 47%
    11:00 +31°C° 0,1 mm 2 m/s 753 mmHg 43%
    12:00 +31°C° 0,1 mm 3 m/s 752 mmHg 42%
    13:00 +33°C° 0,1 mm 3 m/s 752 mmHg 41%
    14:00 +33°C° 0,1 mm 3 m/s 751 mmHg 41%
    15:00 +31°C° 0 mm 3 m/s 751 mmHg 45%
    16:00 +30°C° 0 mm 4 m/s 751 mmHg 49%
    17:00 +28°C° 0 mm 4 m/s 751 mmHg 53%
    18:00 +26°C° 0,1 mm 4 m/s 751 mmHg 62%
    19:00 +24°C° 0,1 mm 3 m/s 752 mmHg 71%
    20:00 +20°C° 0,1 mm 2 m/s 752 mmHg 80%
    21:00 +20°C° 0 mm 2 m/s 752 mmHg 83%
    22:00 +19°C° 0 mm 2 m/s 752 mmHg 85%
    23:00 +18°C° 0 mm 2 m/s 752 mmHg 88%

    Depois de amanhã, 26 Maio, Sexta-feira

    Tempo Temperatura Precipitação Vento Pressão Humidade
    00:00 +18°C° 0 mm 2 m/s 752 mmHg 89%
    01:00 +18°C° 0 mm 1 m/s 752 mmHg 91%
    02:00 +18°C° 0 mm 1 m/s 752 mmHg 92%
    03:00 +18°C° 0 mm 1 m/s 752 mmHg 91%
    04:00 +18°C° 0 mm 1 m/s 752 mmHg 89%
    05:00 +19°C° 0 mm 1 m/s 752 mmHg 88%
    06:00 +20°C° 0 mm 2 m/s 752 mmHg 80%
    07:00 +21°C° 0 mm 2 m/s 752 mmHg 72%
    08:00 +24°C° 0 mm 2 m/s 753 mmHg 65%
    09:00 +25°C° 0 mm 3 m/s 753 mmHg 59%
    10:00 +27°C° 0 mm 3 m/s 753 mmHg 53%
    11:00 +28°C° 0 mm 4 m/s 753 mmHg 47%
    12:00 +28°C° 0 mm 4 m/s 752 mmHg 47%
    13:00 +28°C° 0 mm 5 m/s 752 mmHg 46%
    14:00 +28°C° 0 mm 5 m/s 752 mmHg 46%
    15:00 +27°C° 0 mm 5 m/s 752 mmHg 48%
    16:00 +26°C° 0 mm 5 m/s 752 mmHg 51%
    17:00 +25°C° 0 mm 5 m/s 752 mmHg 53%
    18:00 +22°C° 0 mm 4 m/s 752 mmHg 62%
    19:00 +20°C° 0 mm 3 m/s 752 mmHg 71%
    20:00 +18°C° 0 mm 3 m/s 753 mmHg 80%
    21:00 +17°C° 0 mm 2 m/s 753 mmHg 84%
    22:00 +16°C° 0 mm 2 m/s 753 mmHg 88%
    23:00 +15°C° 0 mm 2 m/s 753 mmHg 91%

    27 Maio, Sábado

    Tempo Temperatura Precipitação Vento Pressão Humidade
    00:00 +15°C° 0 mm 2 m/s 752 mmHg 92%
    01:00 +15°C° 0 mm 2 m/s 752 mmHg 93%
    02:00 +14°C° 0 mm 2 m/s 752 mmHg 93%
    03:00 +15°C° 0 mm 2 m/s 752 mmHg 91%
    04:00 +15°C° 0 mm 1 m/s 752 mmHg 89%
    05:00 +16°C° 0 mm 1 m/s 752 mmHg 86%
    06:00 +19°C° 0 mm 1 m/s 752 mmHg 76%
    07:00 +21°C° 0 mm 1 m/s 752 mmHg 66%
    08:00 +23°C° 0 mm 1 m/s 753 mmHg 55%
    09:00 +25°C° 0 mm 2 m/s 752 mmHg 48%
    10:00 +27°C° 0 mm 2 m/s 752 mmHg 41%
    11:00 +29°C° 0 mm 2 m/s 752 mmHg 34%
    12:00 +29°C° 0 mm 2 m/s 751 mmHg 34%
    13:00 +29°C° 0 mm 3 m/s 751 mmHg 34%
    14:00 +29°C° 0 mm 3 m/s 751 mmHg 34%
    15:00 +28°C° 0 mm 4 m/s 751 mmHg 39%
    16:00 +26°C° 0 mm 5 m/s 751 mmHg 45%
    17:00 +25°C° 0 mm 5 m/s 751 mmHg 51%
    18:00 +22°C° 0 mm 4 m/s 751 mmHg 58%
    19:00 +20°C° 0 mm 3 m/s 751 mmHg 65%
    20:00 +18°C° 0 mm 3 m/s 751 mmHg 72%
    21:00 +18°C° 0 mm 2 m/s 751 mmHg 76%
    22:00 +17°C° 0 mm 2 m/s 751 mmHg 79%
    23:00 +16°C° 0 mm 2 m/s 751 mmHg 83%

    28 Maio, Domingo

    Tempo Temperatura Precipitação Vento Pressão Humidade
    00:00 +16°C° 0 mm 2 m/s 751 mmHg 84%
    01:00 +16°C° 0 mm 2 m/s 751 mmHg 85%
    02:00 +16°C° 0 mm 2 m/s 751 mmHg 86%
    03:00 +16°C° 0,1 mm 2 m/s 751 mmHg 87%
    04:00 +16°C° 0,1 mm 2 m/s 751 mmHg 89%
    05:00 +16°C° 0,1 mm 2 m/s 752 mmHg 91%
    06:00 +17°C° 0 mm 2 m/s 752 mmHg 83%
    07:00 +19°C° 0 mm 2 m/s 752 mmHg 76%
    08:00 +20°C° 0 mm 2 m/s 753 mmHg 69%
    09:00 +21°C° 0,1 mm 2 m/s 753 mmHg 64%
    10:00 +22°C° 0,1 mm 3 m/s 753 mmHg 59%
    11:00 +22°C° 0,1 mm 3 m/s 753 mmHg 55%
    12:00 +22°C° 0,3 mm 4 m/s 753 mmHg 54%
    13:00 +22°C° 0,3 mm 4 m/s 753 mmHg 54%
    14:00 +22°C° 0,3 mm 4 m/s 753 mmHg 54%
    15:00 +22°C° 0,1 mm 4 m/s 753 mmHg 55%
    16:00 +22°C° 0,1 mm 4 m/s 753 mmHg 56%
    17:00 +21°C° 0,1 mm 4 m/s 753 mmHg 56%
    18:00 +19°C° 0 mm 4 m/s 753 mmHg 67%
    19:00 +18°C° 0 mm 3 m/s 754 mmHg 77%
    20:00 +16°C° 0 mm 3 m/s 754 mmHg 87%
    21:00 +14°C° 0 mm 3 m/s 754 mmHg 90%
    22:00 +15°C° 0 mm 2 m/s 754 mmHg 93%
    23:00 +14°C° 0 mm 2 m/s 754 mmHg 96%

    29 Maio, Segunda-feira

    Tempo Temperatura Precipitação Vento Pressão Humidade
    00:00 +14°C° 0 mm 2 m/s 754 mmHg 96%
    01:00 +14°C° 0 mm 2 m/s 754 mmHg 96%
    02:00 +14°C° 0 mm 2 m/s 754 mmHg 96%
    03:00 +14°C° 0 mm 2 m/s 754 mmHg 95%
    04:00 +14°C° 0 mm 2 m/s 754 mmHg 94%
    05:00 +15°C° 0 mm 2 m/s 754 mmHg 93%
    06:00 +17°C° 0 mm 3 m/s 754 mmHg 85%
    07:00 +19°C° 0 mm 3 m/s 755 mmHg 76%
    08:00 +21°C° 0 mm 4 m/s 755 mmHg 67%
    09:00 +22°C° 0 mm 4 m/s 755 mmHg 63%
    10:00 +23°C° 0 mm 5 m/s 755 mmHg 60%
    11:00 +25°C° 0 mm 5 m/s 754 mmHg 56%
    12:00 +24°C° 0 mm 6 m/s 754 mmHg 54%
    13:00 +26°C° 0 mm 6 m/s 754 mmHg 51%
    14:00 +26°C° 0 mm 7 m/s 754 mmHg 48%
    15:00 +24°C° 0 mm 7 m/s 754 mmHg 50%
    16:00 +23°C° 0 mm 7 m/s 754 mmHg 52%
    17:00 +22°C° 0 mm 8 m/s 754 mmHg 55%
    18:00 +20°C° 0 mm 7 m/s 754 mmHg 60%
    19:00 +19°C° 0 mm 6 m/s 754 mmHg 65%
    20:00 +16°C° 0 mm 5 m/s 755 mmHg 71%
    21:00 +15°C° 0 mm 5 m/s 755 mmHg 72%
    22:00 +15°C° 0 mm 4 m/s 755 mmHg 74%
    23:00 +14°C° 0 mm 4 m/s 754 mmHg 76%
    Mostrar mais